Regional Weather Roundup
Issued by NWS Jackson, KY

Home | Current Version | Previous Version | Graphics & Text | Print | Product List | Glossary On
Versions: 1 2 3 4 5 6 7 8 9 10 11 12 13 14 15 16 17 18 19 20 21 22 23 24 25 26 27 28 29 30 31 32 33 34 35 36 37 38 39 40 41 42 43 44 45 46 47 48 49 50
000
ASUS43 KJKL 030710
RWRJKL

EAST KENTUCKY HOURLY WEATHER ROUNDUP
NATIONAL WEATHER SERVICE JACKSON KY
300 AM EDT TUE MAY 03 2016

NOTE: "FAIR" INDICATES FEW OR NO CLOUDS BELOW 12,000 FEET WITH
NO SIGNIFICANT WEATHER AND/OR OBSTRUCTIONS TO VISIBILITY.

* THESE REPORTS ARE NOT UNDER NWS QUALITY CONTROL AND MAY NOT
  REPORT WEATHER SUCH AS PRECIPITATION AND FOG.

KYZ079-080-083-085-087-088-110-112-115-119-120-030800
...EASTERN KENTUCKY...

CITY           SKY/WX    TMP DP  RH WIND       PRES   REMARKS
JACKSON        LGT RAIN  58  56  93 VRB3      29.89F FOG
LONDON         CLOUDY    58  56  93 NW5       29.91S
SOMERSET*      CLOUDY    55  55 100 CALM      29.93S
MONTICELLO*    CLOUDY    58  57  97 W5        29.93F
WILLIAMSBURG*  CLOUDY    57  57 100 CALM      29.91S
MIDDLESBORO*   LGT RAIN  58  58 100 CALM      29.91S
HARLAN APT*    CLOUDY    57  55  94 CALM      29.90F
HAZARD APT*    DRIZZLE   59  59 100 SW3       29.89F
BLACK MTN*       N/A     52  52 100 N1          N/A
PIKE CO APT*   FOG       57  57 100 CALM      29.89F VSB 1/4
BIG SANDY APT* LGT RAIN  58  58 100 SW3       29.89F
MOREHEAD APT*  CLOUDY    57  54  88 CALM      29.91S
$$

KYZ035-036-041-042-044-050-067-078-099-030800
...CENTRAL KENTUCKY...

CITY           SKY/WX    TMP DP  RH WIND       PRES   REMARKS
MT STERLING*   CLOUDY    55  54  94 NW3       29.92S
FLEMING/MASON* CLOUDY    55  52  91 N6        29.90S
DANVILLE*      CLOUDY    54  52  94 NW5       29.93S
RICHMOND*      CLOUDY    55  54  94 CALM      29.90F
LEXINGTON      CLOUDY    55  50  83 NW7       29.91S
FRANKFORT      CLOUDY    56  49  77 NW5       29.90S
LOUISVILLE     CLOUDY    57  48  72 W7        29.92F
LEBANON*       PTSUNNY   55  52  88 W5        29.92F
BOWLING GREEN  CLOUDY    57  51  80 W5        29.95F
$$

KYZ091>093-OHZ055-061-077-WVZ005-015-034-035-042-030800
...SOUTHERN OHIO/WEST VIRGINIA...

CITY           SKY/WX    TMP DP  RH WIND       PRES   REMARKS
COVINGTON      CLOUDY    54  52  94 N7        29.90F
COLUMBUS       CLOUDY    49  44  83 NE6       29.91F
DAYTON         CLOUDY    50  45  83 N7        29.93F
WILMINGTON     CLOUDY    51  48  89 N8        29.91S
HUNTINGTON     LGT RAIN  59  56  89 N5        29.87F
CHARLESTON     CLOUDY    60  58  92 SW3       29.86F
PINEVILLE*     CLOUDY    59  56  91 MISG      29.93F FOG
BECKLEY        CLOUDY    55  54  96 CALM      29.89F
$$

VAZ002-007-008-TNZ017-027-036-066-071-030800
...SOUTHWEST VIRGINIA/EAST TENNESSEE...

CITY           SKY/WX    TMP DP  RH WIND       PRES   REMARKS
WISE*          CLOUDY    55  55 100 CALM      29.92F
BRISTOL        CLOUDY    60  56  86 CALM      29.89F
MORRISTOWN*    CLOUDY    61  59  94 CALM      29.89S
SEVIERVILLE*   CLOUDY    61  61 100 NW3       29.89S
KNOXVILLE      CLOUDY    61  59  93 CALM      29.88F
OAK RIDGE      CLOUDY    61  59  93 CALM      29.90F
CROSSVILLE     CLOUDY    58  55  90 NW6       29.93R
NASHVILLE      CLOUDY    58  53  84 NW6       29.95F
$$

...KEY TO REMARKS...
VSB - VISIBILITY IN MILES
WCI - WIND CHILL INDEX
HX  - HEAT INDEX

$$



USA.gov is the U.S. government's official web portal to all federal, state and local government web resources and services.